Regional Weather Roundup
Issued by NWS

Home | Current Version | Previous Version | Graphics & Text | Print | Product List | Glossary On
Versions: 1 2 3 4 5 6 7 8 9 10 11 12 13 14 15 16 17 18 19 20 21 22 23 24 25 26 27 28 29 30 31 32 33 34 35 36 37 38 39 40 41 42 43 44 45 46 47 48 49 50
000
ASUS43 KDTX 290901
RWRMI
MICHIGAN HOURLY REGIONAL WEATHER ROUNDUP
NATIONAL WEATHER SERVICE DETROIT/PONTIAC MI
500 AM EDT THU SEP 29 2016

NOTE: "FAIR" INDICATES FEW OR NO CLOUDS BELOW 12,000 FEET WITH NO
SIGNIFICANT WEATHER AND/OR OBSTRUCTION TO VISIBILITY.

MIZ047>049-052>055-059>063-066>070-074>076-081>083-291000-
SOUTHEAST LOWER MICHIGAN

CITY           SKY/WX    TMP DP  RH WIND       PRES   REMARKS
ADRIAN         CLOUDY    57  57 100 N3        30.01S
ALMA           PTCLDY    59  55  87 N12G17    30.12R
ANN ARBOR      LGT RAIN  59  59 100 CALM      30.01S FOG
BAD AXE        MOCLDY    59  55  88 E10G21    30.16R
CARO           MOCLDY    60  56  88 NE9       30.12R
DETROIT CITY   LGT RAIN  60  60 100 NE15      30.03R
DETROIT        RAIN      60  60 100 N3        30.01S FOG
FLINT          CLOUDY    62  56  80 NE14      30.07R
HILLSDALE      CLOUDY    55  54  94 NE6       30.02R
HOWELL         RAIN      57  56  96 NE6       30.04S

CITY           SKY/WX    TMP DP  RH WIND       PRES   REMARKS
JACKSON        LGT RAIN  58  57  97 NE8       30.03R
LAMBERTVILLE   CLOUDY    59  57  92 CALM      30.00S FOG
LANSING        MOCLDY    58  53  84 NE10      30.07R
LAPEER         CLOUDY    63  55  75 E12G17    30.09R
MASON          RAIN      57  55  94 N9        30.05R
MONROE         CLOUDY    59  59 100 NW7       29.99S
PONTIAC        RAIN      59  56  89 NE15G21   30.04R FOG
PORT HURON     LGT RAIN  59  57  94 NE14      30.09S
TRI CITIES     PTCLDY    61  56  83 NE13G23   30.14R
MIDLAND        FAIR      61  55  81 NE9       30.14R
TROY           LGT RAIN  60  57  89 NE15      30.06R
SAGINAW HB     PTCLDY    59  54  82 NE12      30.11R
$$
MIZ043>046-050>051-056>058-064>065-071>073-077>080-291000-
SOUTHWEST LOWER MICHIGAN

CITY           SKY/WX    TMP DP  RH WIND       PRES   REMARKS
BATTLE CREEK   RAIN      57  56  96 N6        30.05S FOG
BENTON HARBOR  CLOUDY    59  53  80 NE8       30.06R
BIG RAPIDS     CLEAR     58  53  83 NE7       30.16R
COLDWATER      LGT RAIN  57  57  99 N6        30.02S
FREMONT        FAIR      55  51  86 NE5       30.14R
HOLLAND        CLOUDY    59  53  80 N7        30.09R
GRAND RAPIDS   CLOUDY    59  52  77 NE13      30.09R
IONIA          FAIR      58  52  78 NE15G22   30.07S
KALAMAZOO      LGT RAIN  57  54  89 N7        30.06S FOG
LUDINGTON      CLEAR     55  52  89 N7        30.17F
MARSHALL       HVY RAIN  56  56  98 CALM      30.03S
MOUNT PLEASANT CLEAR     58  53  83 NE12      30.14R
MUSKEGON       CLEAR     58  52  80 NE10      30.13R
SOUTH HAVEN    CLOUDY    59  56  87 NE9       30.07R
$$
MIZ016>042-291000-
NORTHERN LOWER MICHIGAN

CITY           SKY/WX    TMP DP  RH WIND       PRES   REMARKS
ALPENA         CLEAR     59  55  87 NE9       30.27R
BEAVER ISLAND  CLEAR     57  54  89 NE3       30.31R
BELLAIRE       CLEAR     50  49  96 CALM      30.27R FOG
CADILLAC       CLEAR     53  51  93 NE10      30.20F
CHARLEVOIX     CLEAR     58  56  90 SE3       30.31R
FRANKFORT      CLEAR     59  53  79 NE5       30.23S
GAYLORD        CLEAR     54  50  86 NE6       30.27R
GRAYLING       CLEAR     55  53  94 NE9       30.25S
HARBOR SPRINGS CLEAR     57  54  88 NE8       30.29R FOG
HOUGHTON LAKE  CLEAR     55  52  89 NE10      30.22R
MANISTEE       CLEAR     57  52  83 NE13      30.20S
OSCODA         CLEAR     61  56  83 NE18      30.20S
PELLSTON       CLEAR     46  45  96 CALM      30.31R
ROGERS CITY    CLEAR     60  57  88 E9        30.30S
TRAVERSE CITY  CLEAR     58  53  84 NE8       30.23S
$$
MIZ007>008-015-291000-
EASTERN UPPER MICHIGAN

CITY           SKY/WX    TMP DP  RH WIND       PRES   REMARKS
KINROSS        CLEAR     54  50  86 NE9       30.34R
MACKINAC ISLAN CLEAR     57  53  85 NE9       30.31R
NEWBERRY       PTCLDY    51  50  97 N3        30.34R
S. S. MARIE    CLEAR     55  49  80 NE5       30.34R
$$
MIZ004>006-011>014-085-291000-
CENTRAL UPPER MICHIGAN

CITY           SKY/WX    TMP DP  RH WIND       PRES   REMARKS
MANISTIQUE     CLOUDY    53  51  93 N7        30.33R
ESCANABA       CLEAR     54  53  97 N6        30.33R
MENOMINEE      CLEAR     53  51  93 N10       30.31S
SAWYER-GWINN   CLOUDY    54  53  97 N9        30.37R
$$
MIZ001>003-009>011-084-291000-
WESTERN UPPER MICHIGAN

CITY           SKY/WX    TMP DP  RH WIND       PRES   REMARKS
IRON MOUNTAIN  CLEAR     49  47  93 W5        30.35R
HOUGHTON       CLEAR     52  49  89 N8        30.40R
COPPER HARBOR    N/A     57  54  89 E8        30.40R
IRONWOOD       CLOUDY    48  48 100 CALM      30.43R
$$

ABBREVIATIONS USED IN REMARKS
   TC - TEMPERATURE IN CELSIUS
  WCI - WIND CHILL INDEX
   HX - HEAT INDEX
  VSB - VISIBILITY





USA.gov is the U.S. government's official web portal to all federal, state and local government web resources and services.